GSAT0216 (GALILEO 20) (43056 NORAD) Tracking and Keplerian Element Data

This shows tracking and keplerian element data for the satellite.

Feedback or suggestion? Click here.




ElementValue
Catalog43056
NameGSAT0216 (GALILEO 20)
Epoch Orbit365
Epoch Day197.27294927
Epoch Year2018
RAAN301.0126
Inclination56.829
Eccentricity0.0004389
Argument of Perigee230.2539
Mean Anonmoly129.7444
Mean Motion1.70474275
Decay Rate-5.3E-07
L11 43056U 17079B 18197.27294927 -.00000053 00000-0 00000+0 0 9998
L22 43056 56.8290 301.0126 0004389 230.2539 129.7444 1.70474275 3653

Live tracking and technical data element details for GSAT0216 (GALILEO 20) (NORAD 43056). GSAT0216 (GALILEO 20) can be tracked NOW for your location showing map with azimuth and elevation plus other details from your city location.

Track the satellite on the map from your city or location and see movement details for azimuth, elevation, latitude, longitude, range, height, and movement on the map or in text.







IsCatalogInMostPopularTable: catalog: 43056, numindb: 108
Update: records affected: 1



GetName: 43056 GSAT0216 (GALILEO 20)

Hit Count: updated at: Thu, 19 Jul 2018 03:23:27 GMT